DW8749 Weather Reports


Display with metric or nautical units.
time (UTC)temp
F
wind
direction
speed
MPH
gust
MPH
rain 1hr
in
rain 24hr
in
rain mn
in
humidity
%
barometer
mb
20260507165509 69 203 7.0 16.0 0.00 0.00 0.00 38 1014.3
20260507165007 68 266 8.0 18.0 0.00 0.00 0.00 39 1014.4
20260507164529 68 188 9.0 18.0 0.00 0.00 0.00 39 1014.5
20260507164010 67 234 4.0 16.0 0.00 0.00 0.00 41 1014.5
20260507163509 67 276 8.0 15.0 0.00 0.00 0.00 40 1014.5
20260507163026 66 261 5.0 15.0 0.00 0.00 0.00 43 1014.7
20260507162510 66 259 7.0 15.0 0.00 0.00 0.00 43 1014.9
20260507162005 65 209 5.0 19.0 0.00 0.00 0.00 45 1014.9
20260507161512 64 226 7.0 19.0 0.00 0.00 0.00 46 1015.0
20260507161007 64 254 7.0 15.0 0.00 0.00 0.00 46 1014.9
20260507160508 63 295 6.0 14.0 0.00 0.00 0.00 45 1015.0
20260507160020 63 297 5.0 16.0 0.00 0.00 0.00 47 1015.0
20260507155508 63 276 6.0 16.0 0.00 0.00 0.00 48 1015.1
20260507155007 62 213 4.0 14.0 0.00 0.00 0.00 49 1015.1
20260507154525 62 231 5.0 14.0 0.00 0.00 0.00 50 1015.1
20260507154009 61 262 5.0 17.0 0.00 0.00 0.00 50 1015.2
20260507153507 60 212 7.0 18.0 0.00 0.00 0.00 50 1015.4
20260507153008 60 220 7.0 19.0 0.00 0.00 0.00 51 1015.5
20260507152507 60 252 7.0 20.0 0.00 0.00 0.00 51 1015.5
20260507152007 59 170 8.0 20.0 0.00 0.00 0.00 52 1015.6
20260507151514 58 249 5.0 15.0 0.00 0.00 0.00 55 1015.6
20260507151005 58 277 4.0 17.0 0.00 0.01 0.00 56 1015.7
20260507150505 57 251 5.0 17.0 0.00 0.01 0.00 58 1015.7
20260507150020 57 256 6.0 15.0 0.00 0.01 0.00 59 1015.8
20260507145512 56 284 4.0 13.0 0.00 0.01 0.00 60 1015.7
20260507145009 55 285 6.0 12.0 0.00 0.01 0.00 62 1015.8
20260507144531 54 263 5.0 12.0 0.00 0.01 0.00 64 1015.9
20260507144011 53 260 4.0 14.0 0.00 0.01 0.00 66 1016.0
20260507143512 52 260 6.0 17.0 0.00 0.01 0.00 69 1016.0
20260507143019 51 301 5.0 17.0 0.00 0.01 0.00 69 1016.1
20260507142505 51 256 8.0 17.0 0.00 0.01 0.00 69 1016.1
20260507142008 51 256 7.0 15.0 0.00 0.01 0.00 71 1016.1
20260507141517 50 240 6.0 13.0 0.00 0.01 0.00 73 1016.0
20260507141012 50 261 5.0 17.0 0.00 0.01 0.00 74 1016.0
20260507140510 49 254 7.0 17.0 0.00 0.01 0.00 74 1016.1
20260507140023 49 261 6.0 13.0 0.00 0.01 0.00 75 1016.2
20260507135509 48 211 4.0 17.0 0.00 0.01 0.00 77 1016.2
20260507135010 48 214 7.0 17.0 0.00 0.01 0.00 77 1016.3
20260507134528 47 223 4.0 17.0 0.00 0.01 0.00 78 1016.4
20260507134008 47 330 8.0 15.0 0.00 0.01 0.00 79 1016.4
20260507133503 46 234 7.0 14.0 0.00 0.01 0.00 80 1016.6
20260507133016 46 250 4.0 14.0 0.00 0.01 0.00 80 1016.8
20260507132511 45 243 4.0 12.0 0.00 0.01 0.00 81 1016.8
20260507132009 45 240 5.0 12.0 0.00 0.01 0.00 81 1017.0
20260507131529 44 242 6.0 11.0 0.00 0.02 0.00 82 1017.0
20260507131008 44 302 6.0 12.0 0.00 0.02 0.00 83 1016.8
20260507130513 43 266 4.0 12.0 0.00 0.02 0.00 84 1016.6
20260507130027 43 261 4.0 15.0 0.00 0.02 0.00 85 1016.7
20260507125509 42 242 4.0 15.0 0.00 0.02 0.00 86 1016.6
20260507125011 41 202 6.0 15.0 0.00 0.02 0.00 86 1016.6
20260507124525 41 306 5.0 8.0 0.00 0.02 0.00 88 1016.7
20260507124009 40 223 2.0 9.0 0.00 0.02 0.00 88 1016.7
20260507123506 40 208 2.0 9.0 0.00 0.02 0.00 89 1016.7
20260507123016 39 250 4.0 9.0 0.00 0.02 0.00 89 1016.7
20260507122507 39 196 2.0 7.0 0.00 0.02 0.00 89 1016.7
20260507122008 39 252 3.0 8.0 0.00 0.02 0.00 89 1016.7
20260507121524 39 269 3.0 8.0 0.00 0.03 0.00 89 1016.8
20260507121007 38 267 2.0 7.0 0.00 0.03 0.00 89 1016.8
20260507120508 38 264 2.0 7.0 0.00 0.03 0.00 89 1016.8
20260507120039 38 256 3.0 7.0 0.00 0.03 0.00 88 1016.7
20260507115507 38 304 2.0 6.0 0.00 0.04 0.00 88 1016.7
20260507115011 38 226 2.0 6.0 0.00 0.04 0.00 88 1016.7
20260507114527 38 273 2.0 7.0 0.00 0.05 0.00 88 1016.6
20260507114006 38 229 1.0 7.0 0.00 0.05 0.00 88 1016.7
20260507113511 38 218 1.0 4.0 0.00 0.05 0.00 89 1016.8
20260507113035 38 223 1.0 9.0 0.00 0.06 0.00 88 1016.7
20260507112512 38 196 2.0 8.0 0.00 0.06 0.00 89 1016.6
20260507112016 38 240 3.0 6.0 0.00 0.06 0.00 88 1016.9
20260507111525 38 248 2.0 8.0 0.00 0.06 0.00 88 1017.0
20260507111010 38 258 4.0 8.0 0.00 0.06 0.00 88 1017.0
20260507110507 38 259 3.0 8.0 0.00 0.06 0.00 88 1017.0
20260507110031 39 231 3.0 7.0 0.00 0.06 0.00 88 1017.0
20260507105509 39 245 2.0 9.0 0.00 0.06 0.00 88 1017.1
20260507105008 39 252 3.0 9.0 0.00 0.06 0.00 88 1017.1
20260507104528 39 246 2.0 8.0 0.00 0.07 0.00 88 1017.1
20260507104005 39 230 3.0 8.0 0.00 0.07 0.00 88 1017.3
20260507103505 39 244 3.0 10.0 0.00 0.07 0.00 88 1017.3
20260507103023 39 219 2.0 10.0 0.00 0.07 0.00 88 1017.4
20260507102502 39 281 3.0 8.0 0.00 0.07 0.00 88 1017.3
20260507102006 39 246 2.0 8.0 0.00 0.07 0.00 88 1017.3
20260507101507 39 265 3.0 7.0 0.00 0.07 0.00 88 1017.4
20260507101004 39 224 3.0 8.0 0.00 0.07 0.00 88 1017.4
20260507100504 39 243 2.0 8.0 0.00 0.07 0.00 88 1017.4
20260507100015 39 239 3.0 9.0 0.00 0.07 0.00 88 1017.4
20260507095505 39 238 3.0 9.0 0.00 0.07 0.00 88 1017.5
20260507095009 40 252 4.0 9.0 0.00 0.08 0.00 88 1017.5
20260507094518 40 224 3.0 5.0 0.00 0.08 0.00 88 1017.5
20260507094007 40 236 2.0 8.0 0.00 0.08 0.00 88 1017.5
20260507093507 40 232 3.0 8.0 0.00 0.09 0.00 88 1017.4
20260507093022 40 227 1.0 7.0 0.00 0.09 0.00 88 1017.4
20260507092503 40 250 2.0 8.0 0.00 0.10 0.00 88 1017.5
20260507092004 40 260 2.0 8.0 0.00 0.10 0.00 87 1017.5
20260507091508 40 265 1.0 6.0 0.00 0.10 0.00 87 1017.6
20260507091003 40 242 1.0 6.0 0.00 0.10 0.00 87 1017.7
20260507090507 40 247 1.0 6.0 0.00 0.10 0.00 87 1017.7
20260507090015 40 227 1.0 5.0 0.00 0.10 0.00 87 1017.8
20260507085508 40 240 2.0 5.0 0.00 0.10 0.00 86 1017.9
20260507085007 40 229 1.0 4.0 0.00 0.10 0.00 86 1017.9
20260507084521 41 234 1.0 4.0 0.00 0.11 0.00 86 1017.9
20260507084010 41 207 1.0 3.0 0.00 0.11 0.00 86 1018.0
20260507083507 41 249 1.0 6.0 0.00 0.11 0.00 86 1018.0
20260507083024 41 222 1.0 6.0 0.00 0.11 0.00 86 1018.1
20260507082508 41 234 1.0 6.0 0.00 0.12 0.00 86 1018.2
20260507082003 41 265 1.0 6.0 0.00 0.12 0.00 85 1018.2
20260507081511 41 244 2.0 7.0 0.00 0.12 0.00 85 1018.3
20260507081004 41 259 3.0 7.0 0.00 0.13 0.00 85 1018.4
20260507080505 41 215 2.0 7.0 0.00 0.13 0.00 85 1018.5
20260507080020 42 250 2.0 7.0 0.00 0.14 0.00 85 1018.6
20260507075506 42 234 2.0 8.0 0.00 0.14 0.00 85 1018.7
20260507075007 42 249 2.0 8.0 0.00 0.14 0.00 85 1018.7
20260507074530 42 252 2.0 8.0 0.00 0.15 0.00 85 1018.7
20260507074007 42 251 3.0 7.0 0.00 0.15 0.00 85 1018.8
20260507073508 42 261 1.0 7.0 0.00 0.15 0.00 85 1018.9
20260507073028 42 242 2.0 6.0 0.00 0.16 0.00 84 1018.8
20260507072505 42 284 1.0 5.0 0.00 0.16 0.00 84 1018.9
20260507072006 43 280 1.0 5.0 0.00 0.17 0.00 84 1018.9
20260507071507 43 269 2.0 7.0 0.00 0.17 0.00 84 1019.0
20260507071006 43 273 2.0 7.0 0.00 0.17 0.00 84 1019.1
20260507070506 43 257 2.0 7.0 0.00 0.17 0.00 84 1019.1
20260507070018 43 298 2.0 4.0 0.00 0.17 0.00 84 1019.1
20260507065510 43 238 1.0 6.0 0.00 0.17 0.00 84 1019.1
20260507065006 43 250 2.0 6.0 0.00 0.17 0.00 84 1019.1
20260507064524 43 262 1.0 4.0 0.00 0.17 0.00 84 1019.2
20260507064009 43 239 1.0 3.0 0.00 0.17 0.00 84 1019.3
20260507063508 44 249 1.0 4.0 0.00 0.17 0.00 83 1019.3
20260507063008 44 261 1.0 4.0 0.00 0.17 0.00 83 1019.3
20260507062504 44 242 2.0 4.0 0.00 0.17 0.00 83 1019.4
20260507062007 44 265 2.0 4.0 0.00 0.17 0.00 82 1019.5
20260507061516 44 245 1.0 2.0 0.00 0.17 0.00 82 1019.5
20260507061009 45 229 1.0 3.0 0.00 0.17 0.00 82 1019.6
20260507060505 45 246 1.0 4.0 0.00 0.18 0.00 82 1019.6
20260507060019 45 239 1.0 4.0 0.00 0.18 0.00 82 1019.7
20260507055507 45 273 2.0 4.0 0.00 0.18 0.00 81 1019.8
20260507055006 45 303 2.0 7.0 0.00 0.18 0.00 81 1019.9
20260507054527 46 260 2.0 7.0 0.00 0.18 0.00 80 1020.0
20260507054009 46 241 2.0 4.0 0.00 0.18 0.00 80 1019.9
20260507053510 46 284 1.0 6.0 0.00 0.18 0.00 80 1019.9
20260507053007 46 304 2.0 8.0 0.00 0.18 0.00 79 1019.8
20260507052506 46 309 4.0 8.0 0.00 0.19 0.00 79 1019.8
20260507052006 46 296 3.0 10.0 0.00 0.19 0.00 78 1019.7
20260507051518 46 279 2.0 10.0 0.00 0.19 0.00 78 1019.7
20260507051007 47 291 5.0 10.0 0.00 0.19 0.00 77 1019.6
20260507050510 47 277 4.0 9.0 0.00 0.19 0.00 77 1019.6
20260507050024 47 274 3.0 9.0 0.00 0.19 0.00 76 1019.6
20260507045510 48 255 3.0 9.0 0.00 0.19 0.19 76 1019.6
20260507045006 48 266 3.0 9.0 0.00 0.19 0.19 75 1019.6
20260507044527 48 294 3.0 9.0 0.00 0.19 0.19 74 1019.7
20260507044009 49 284 3.0 9.0 0.00 0.19 0.19 74 1019.7
20260507043510 49 308 3.0 7.0 0.00 0.19 0.19 73 1019.7
20260507043012 49 259 3.0 7.0 0.00 0.19 0.19 72 1019.6
20260507042506 49 277 3.0 7.0 0.00 0.19 0.19 72 1019.6
20260507042005 49 288 2.0 7.0 0.00 0.19 0.19 71 1019.6
20260507041519 49 286 3.0 7.0 0.00 0.19 0.19 71 1019.6
20260507041007 49 279 2.0 4.0 0.00 0.19 0.19 70 1019.6
20260507040507 50 245 1.0 3.0 0.00 0.19 0.19 70 1019.6
20260507040024 50 292 1.0 4.0 0.00 0.19 0.19 70 1019.5
20260507035507 50 271 0.0 4.0 0.00 0.19 0.19 70 1019.5
20260507035011 50 288 0.0 3.0 0.00 0.19 0.19 70 1019.5
20260507034535 50 273 0.0 2.0 0.00 0.19 0.19 70 1019.5
20260507034010 50 279 0.0 0.0 0.00 0.19 0.19 70 1019.4
20260507033506 50 279 0.0 2.0 0.00 0.19 0.19 70 1019.2
20260507033015 50 241 0.0 2.0 0.00 0.19 0.19 70 1019.2
20260507032507 50 292 0.0 0.0 0.00 0.19 0.19 70 1019.2
20260507032006 50 292 0.0 0.0 0.00 0.19 0.19 70 1019.3
20260507031520 50 292 0.0 0.0 0.00 0.19 0.19 70 1019.3
20260507031012 50 292 0.0 0.0 0.00 0.19 0.19 70 1019.3
20260507030507 50 292 0.0 0.0 0.00 0.19 0.19 70 1019.3
20260507030026 50 292 0.0 2.0 0.00 0.19 0.19 70 1019.3
20260507025506 51 292 0.0 2.0 0.00 0.19 0.19 70 1019.2
20260507025007 51 292 0.0 3.0 0.00 0.19 0.19 70 1019.3
20260507024530 51 292 1.0 3.0 0.00 0.19 0.19 69 1019.4
20260507024009 51 286 2.0 3.0 0.00 0.19 0.19 69 1019.4
20260507023506 51 309 2.0 6.0 0.00 0.19 0.19 69 1019.4
20260507023015 51 292 2.0 7.0 0.00 0.19 0.19 68 1019.3
20260507022512 51 287 3.0 7.0 0.00 0.19 0.19 68 1019.3
20260507022007 51 291 1.0 5.0 0.00 0.19 0.19 68 1019.2
20260507021522 51 307 2.0 5.0 0.00 0.19 0.19 67 1019.0
20260507021012 52 290 3.0 4.0 0.00 0.19 0.19 66 1018.9
20260507020507 52 300 3.0 6.0 0.00 0.19 0.19 66 1018.9
20260507020030 52 298 3.0 8.0 0.00 0.19 0.19 65 1018.8
20260507015507 52 296 3.0 8.0 0.00 0.19 0.19 64 1018.8
20260507015010 52 291 3.0 4.0 0.00 0.19 0.19 63 1018.7
20260507014528 53 317 3.0 4.0 0.00 0.19 0.19 64 1018.6
20260507014007 53 317 2.0 8.0 0.00 0.20 0.19 64 1018.7
20260507013504 53 309 4.0 8.0 0.00 0.20 0.19 64 1018.9
20260507013016 53 281 4.0 8.0 0.00 0.20 0.19 62 1018.9
20260507012508 53 309 4.0 8.0 0.00 0.20 0.19 61 1018.9
20260507012008 53 296 3.0 8.0 0.00 0.20 0.19 60 1018.8
20260507011522 53 306 4.0 8.0 0.00 0.20 0.19 60 1018.7
20260507011008 53 317 3.0 5.0 0.00 0.20 0.19 60 1018.5
20260507010511 54 303 4.0 5.0 0.00 0.20 0.19 59 1018.5
20260507010032 54 323 3.0 5.0 0.00 0.20 0.19 59 1018.5
20260507005508 54 309 2.0 5.0 0.00 0.20 0.19 59 1018.4
20260507005008 54 296 3.0 5.0 0.00 0.20 0.19 58 1018.5
20260507004527 54 303 2.0 7.0 0.00 0.20 0.19 57 1018.4
20260507004007 54 311 4.0 8.0 0.00 0.20 0.19 57 1018.4
20260507003507 54 320 4.0 8.0 0.00 0.20 0.19 58 1018.4
20260507003018 54 306 4.0 8.0 0.00 0.20 0.19 58 1018.3
20260507002508 54 300 4.0 8.0 0.00 0.20 0.19 57 1018.3
20260507002008 54 269 3.0 8.0 0.00 0.20 0.19 56 1018.3
20260507001529 55 325 3.0 8.0 0.00 0.20 0.19 55 1018.3
20260507001010 55 335 4.0 8.0 0.00 0.20 0.19 55 1018.4
20260507000512 55 312 2.0 10.0 0.00 0.20 0.19 55 1018.5
20260507000029 55 295 5.0 10.0 0.00 0.20 0.19 54 1018.5
20260506235507 55 311 4.0 9.0 0.00 0.20 0.19 53 1018.5
20260506235012 55 267 6.0 11.0 0.00 0.20 0.19 55 1018.2
20260506234534 56 325 7.0 11.0 0.00 0.20 0.19 55 1018.2
20260506234010 56 10 6.0 10.0 0.00 0.20 0.19 56 1018.3
20260506233509 55 299 2.0 5.0 0.00 0.20 0.19 55 1018.3
20260506233024 55 320 3.0 5.0 0.00 0.20 0.19 54 1018.3
20260506232502 55 320 3.0 5.0 0.00 0.20 0.19 54 1018.4
20260506232002 55 33 1.0 5.0 0.00 0.20 0.19 55 1018.3
20260506231503 55 345 2.0 6.0 0.00 0.20 0.19 56 1018.2
20260506231002 55 318 4.0 6.0 0.00 0.20 0.19 55 1018.2
20260506230501 55 328 4.0 7.0 0.00 0.20 0.19 54 1018.3
20260506230004 55 292 4.0 8.0 0.00 0.20 0.19 55 1018.5
20260506225503 55 291 6.0 8.0 0.00 0.20 0.19 53 1018.6
20260506225003 55 288 5.0 9.0 0.00 0.20 0.19 55 1018.3
20260506224516 55 286 5.0 10.0 0.00 0.20 0.19 54 1018.4
20260506224004 56 323 6.0 10.0 0.00 0.20 0.19 55 1018.3
20260506223503 56 350 3.0 9.0 0.00 0.20 0.19 54 1018.3
20260506223003 56 348 5.0 9.0 0.00 0.20 0.19 54 1018.2
20260506222504 56 307 4.0 8.0 0.00 0.20 0.19 54 1018.2
20260506222003 57 320 3.0 8.0 0.00 0.20 0.19 52 1018.3
20260506221504 57 297 2.0 10.0 0.00 0.20 0.19 52 1018.2
20260506221004 58 314 4.0 10.0 0.00 0.20 0.19 52 1018.2
20260506220503 58 302 5.0 11.0 0.00 0.20 0.19 51 1018.3
20260506220004 59 285 4.0 11.0 0.00 0.20 0.19 52 1018.4
20260506215502 59 302 2.0 14.0 0.00 0.20 0.19 50 1018.3
20260506215002 59 329 8.0 14.0 0.00 0.20 0.19 51 1018.4
20260506214503 59 319 6.0 11.0 0.00 0.20 0.19 52 1018.3
20260506214003 58 298 7.0 11.0 0.00 0.20 0.19 53 1018.5
20260506213504 57 199 4.0 8.0 0.00 0.20 0.19 55 1018.4
20260506213003 57 333 2.0 5.0 0.00 0.20 0.19 51 1018.5
20260506212503 57 92 2.0 5.0 0.00 0.20 0.19 53 1018.6
20260506212003 57 342 2.0 7.0 0.00 0.20 0.19 54 1018.6
20260506211511 57 322 1.0 7.0 0.00 0.20 0.19 55 1018.7
20260506211006 56 333 3.0 9.0 0.00 0.20 0.19 53 1018.8
20260506210503 56 328 5.0 9.0 0.00 0.20 0.19 54 1018.9
20260506210007 56 288 3.0 7.0 0.00 0.20 0.19 54 1018.9
20260506205502 57 60 2.0 8.0 0.00 0.20 0.19 54 1018.9
20260506205002 57 16 3.0 8.0 0.00 0.20 0.19 53 1019.0
20260506204504 57 329 1.0 8.0 0.00 0.20 0.19 52 1018.9
20260506204004 57 315 2.0 5.0 0.00 0.20 0.19 54 1019.0
20260506203504 57 240 0.0 7.0 0.00 0.20 0.19 54 1019.1
20260506203003 56 245 3.0 7.0 0.00 0.20 0.19 56 1019.2
20260506202503 56 288 0.0 9.0 0.00 0.20 0.19 53 1019.2
20260506202003 57 302 4.0 9.0 0.00 0.20 0.19 55 1019.4
20260506201503 57 311 6.0 10.0 0.00 0.20 0.19 56 1019.4
20260506201004 56 290 4.0 10.0 0.00 0.20 0.19 63 1019.5
20260506200504 55 307 6.0 10.0 0.00 0.20 0.19 60 1019.5
20260506200007 55 317 2.0 7.0 0.00 0.20 0.19 59 1019.5
20260506195502 55 44 2.0 8.0 0.00 0.20 0.19 58 1019.5
20260506195004 55 12 3.0 9.0 0.00 0.20 0.19 58 1019.6
20260506194504 54 329 5.0 9.0 0.00 0.20 0.19 60 1019.6
20260506194006 54 318 3.0 9.0 0.00 0.20 0.19 62 1019.9
20260506193502 54 198 3.0 8.0 0.00 0.20 0.19 62 1019.9
20260506193005 54 37 2.0 5.0 0.00 0.20 0.19 59 1019.9
20260506192504 54 20 2.0 5.0 0.00 0.20 0.19 60 1019.9
20260506192006 54 94 2.0 5.0 0.00 0.20 0.19 60 1019.9
20260506191507 53 311 1.0 5.0 0.00 0.20 0.19 61 1019.8
20260506191003 54 248 1.0 4.0 0.00 0.20 0.19 61 1020.0
20260506190505 54 319 2.0 7.0 0.00 0.20 0.19 59 1020.0
20260506190006 54 303 2.0 7.0 0.00 0.20 0.19 61 1020.1
20260506185505 53 281 3.0 7.0 0.00 0.20 0.19 61 1020.1
20260506185002 53 296 3.0 7.0 0.00 0.20 0.19 61 1020.1
20260506184507 53 36 3.0 5.0 0.00 0.20 0.19 61 1019.9
20260506184003 53 51 1.0 3.0 0.00 0.20 0.19 63 1020.0
20260506183504 53 52 1.0 3.0 0.00 0.20 0.19 63 1020.1
20260506183007 52 84 1.0 2.0 0.00 0.20 0.19 63 1020.1
20260506182503 52 244 0.0 2.0 0.00 0.20 0.19 64 1020.1
20260506182004 52 171 1.0 3.0 0.00 0.20 0.19 63 1020.2
20260506181506 52 160 1.0 3.0 0.00 0.20 0.19 64 1020.2
20260506181004 52 161 1.0 2.0 0.00 0.20 0.19 62 1020.3
20260506180504 52 138 0.0 3.0 0.00 0.20 0.19 64 1020.2
20260506180010 52 128 1.0 5.0 0.00 0.20 0.19 62 1020.2
20260506175505 52 332 0.0 6.0 0.00 0.20 0.19 65 1020.2
20260506175004 51 46 2.0 6.0 0.00 0.20 0.19 64 1020.1
20260506174510 51 92 1.0 3.0 0.00 0.20 0.19 68 1020.2
20260506174004 51 71 1.0 5.0 0.00 0.20 0.19 66 1020.2
20260506173506 51 74 3.0 5.0 0.00 0.20 0.19 67 1020.2
20260506173008 51 300 1.0 3.0 0.00 0.20 0.19 69 1020.3
20260506172503 51 25 0.0 4.0 0.00 0.20 0.19 66 1020.4
20260506172004 51 109 0.0 4.0 0.00 0.20 0.19 70 1020.5
20260506171509 51 59 1.0 4.0 0.00 0.20 0.19 71 1020.6
20260506171006 51 134 1.0 4.0 0.00 0.20 0.19 72 1020.7
20260506170504 50 28 0.0 5.0 0.00 0.20 0.19 79 1020.7
20260506170008 49 296 3.0 5.0 0.00 0.20 0.19 78 1020.7